User: anonymous   Login
Location: Bergnershof
(48.9468°N, 10.9431°E)
Time: 00:17:37
(UTC+00:00)
Language:

YAOGAN 1 - Orbit

View from above orbital plane
View from above orbital plane
View from above satellite
View from above satellite

Ground track
Ground track

The orbit data is extracted from the following two-line orbital elements,

1 29092U 06015A   21138.56079823  .00000072  00000-0  15264-4 0  9990
2 29092  97.9102 166.2307 0001483  92.5730 267.5653 14.83157541814409
Epoch (UTC): 18 May 2021 13:27:32
Eccentricity: 0.0001483
inclination: 97.9102°
perigee height: 618 km
apogee height: 620 km
right ascension of ascending node: 166.2307°
argument of perigee: 92.5730°
revolutions per day: 14.83157541
mean anomaly at epoch: 267.5653°
orbit number at epoch: 81440

The dashed part of the orbit path shows where the satellite is in the earth's shadow,  

DLR